FW6672 Weather Reports


time (UTC)temp
C
wind
direction
speed
KPH
gust
KPH
rain 1hr
cm
rain 24hr
cm
rain mn
cm
humidity
%
barometer
mb
20260505071559 6 250 0.0 0.0 0.00 0.00 0.00 97 1016.8
20260505071058 6 255 0.0 0.0 0.00 0.00 0.00 97 1016.7
20260505070555 6 260 0.0 0.0 0.00 0.00 0.00 97 1016.9
20260505070050 6 260 0.0 0.0 0.00 0.00 0.00 97 1016.8
20260505065546 6 254 0.0 0.0 0.00 0.00 0.00 96 1017.1
20260505065044 6 259 0.0 0.0 0.00 0.00 0.00 96 1016.8
20260505064540 6 258 0.0 0.0 0.00 0.00 0.00 96 1016.8
20260505064039 6 245 0.0 0.0 0.00 0.00 0.00 96 1016.7
20260505063536 6 235 0.0 0.0 0.00 0.00 0.00 96 1016.9
20260505063031 6 263 1.6 1.6 0.00 0.00 0.00 96 1017.0
20260505062528 6 283 1.6 1.6 0.00 0.00 0.00 96 1016.9
20260505062026 7 210 0.0 0.0 0.00 0.00 0.00 96 1016.9
20260505061523 7 295 0.0 0.0 0.00 0.00 0.00 96 1016.8
20260505061021 7 271 0.0 0.0 0.00 0.00 0.00 96 1016.5
20260505060518 7 263 0.0 0.0 0.13 0.00 0.00 96 1017.0
20260505060015 7 275 0.0 0.0 0.13 0.25 0.25 96 1017.0
20260505055510 7 267 0.0 0.0 0.00 0.23 0.23 96 1016.9
20260505055007 7 265 0.0 0.0 0.00 0.23 0.23 95 1017.3
20260505054504 7 272 0.0 0.0 0.18 0.23 0.23 96 1016.8
20260505054002 7 290 0.0 0.0 0.18 0.23 0.23 95 1017.0
20260505053459 7 276 1.6 1.6 0.13 0.20 0.20 95 1017.1
20260505052955 7 276 1.6 1.6 0.13 0.20 0.20 95 1017.3
20260505052453 7 267 1.6 1.6 0.13 0.20 0.20 95 1017.3
20260505051950 7 278 1.6 1.6 0.00 0.18 0.18 95 1017.4
20260505051447 7 267 1.6 1.6 0.00 0.18 0.18 95 1017.5
20260505050945 7 297 3.2 3.2 0.00 0.18 0.18 94 1017.3
20260505050443 7 269 1.6 1.6 0.18 0.18 0.18 94 1017.1
20260505041411 8 300 1.6 3.2 0.18 0.03 0.03 81 1017.3
20260505040908 9 279 1.6 1.6 0.00 0.00 0.00 75 1017.3
20260505040405 10 260 1.6 1.6 0.00 0.00 0.00 70 1017.1
20260505035902 10 259 1.6 3.2 0.00 0.00 0.00 67 1017.0
20260505035357 10 271 0.0 0.0 0.00 0.00 0.00 67 1016.9
20260505034855 10 271 1.6 1.6 0.00 0.00 0.00 66 1016.4
20260505034352 10 300 3.2 3.2 0.00 0.00 0.00 66 1016.5
20260505033849 10 272 1.6 1.6 0.00 0.00 0.00 66 1016.4
20260505033345 10 276 1.6 1.6 0.00 0.00 0.00 65 1016.4
20260505032844 10 281 1.6 1.6 0.00 0.00 0.00 65 1016.3
20260505032340 10 298 3.2 3.2 0.00 0.00 0.00 65 1016.2
20260505031837 10 285 1.6 3.2 0.00 0.00 0.00 65 1016.3
20260505031333 10 323 4.8 4.8 0.00 0.00 0.00 64 1016.2
20260505030831 10 326 4.8 4.8 0.00 0.00 0.00 63 1016.2
20260505030327 10 292 1.6 3.2 0.00 0.00 0.00 64 1016.1
20260505025822 10 294 1.6 1.6 0.00 0.00 0.00 63 1016.3
20260505025320 10 326 4.8 4.8 0.00 0.00 0.00 62 1015.9
20260505024818 10 291 3.2 3.2 0.00 0.00 0.00 63 1015.8
20260505024316 10 299 3.2 3.2 0.00 0.00 0.00 63 1015.9
20260505023813 10 306 3.2 3.2 0.00 0.00 0.00 62 1015.8
20260505023309 10 326 4.8 4.8 0.00 0.00 0.00 63 1015.7
20260505022807 10 295 1.6 3.2 0.00 0.00 0.00 64 1015.8
20260505022304 10 273 1.6 1.6 0.00 0.00 0.00 64 1015.9
20260505021801 10 307 3.2 3.2 0.00 0.00 0.00 65 1015.7
20260505021258 10 326 8.0 11.3 0.00 0.00 0.00 64 1015.8
20260505020753 10 336 9.7 9.7 0.00 0.00 0.00 64 1015.9
20260505020248 10 329 6.4 8.0 0.00 0.00 0.00 64 1016.1
20260505015746 10 332 6.4 8.0 0.00 0.00 0.00 64 1015.8
20260505015243 10 344 4.8 8.0 0.00 0.00 0.00 62 1015.6
20260505014740 11 327 9.7 11.3 0.00 0.00 0.00 59 1015.6
20260505014238 11 336 12.9 14.5 0.00 0.00 0.00 59 1015.2
20260505013734 11 307 4.8 8.0 0.00 0.00 0.00 56 1015.5
20260505013231 12 319 3.2 3.2 0.00 0.00 0.00 55 1015.6
20260505012729 12 295 3.2 3.2 0.00 0.00 0.00 52 1015.6
20260505012226 12 320 6.4 8.0 0.00 0.00 0.00 50 1015.2
20260505011722 12 293 1.6 3.2 0.00 0.00 0.00 49 1015.6
20260505011220 12 327 8.0 8.0 0.00 0.00 0.00 49 1015.3
20260505010715 12 310 11.3 12.9 0.00 0.00 0.00 48 1015.1
20260505010212 13 317 14.5 17.7 0.00 0.00 0.00 47 1015.0
20260505005708 13 303 11.3 14.5 0.00 0.00 0.00 46 1014.9
20260505005205 13 316 14.5 16.1 0.00 0.00 0.00 46 1015.0
20260505004702 13 346 14.5 16.1 0.00 0.00 0.00 44 1014.9
20260505004159 13 343 17.7 22.5 0.00 0.00 0.00 43 1014.7
20260505003656 14 337 17.7 22.5 0.00 0.00 0.00 41 1014.7
20260505003153 14 339 4.8 4.8 0.00 0.00 0.00 41 1014.9
20260505002649 14 353 12.9 14.5 0.00 0.00 0.00 40 1014.9
20260505002148 14 329 8.0 11.3 0.00 0.00 0.00 40 1014.6
20260505001644 15 13 11.3 12.9 0.00 0.00 0.00 40 1014.5
20260505001142 15 345 11.3 17.7 0.00 0.00 0.00 39 1014.2
20260505000638 15 335 8.0 12.9 0.00 0.00 0.00 39 1014.4
20260505000137 15 326 14.5 16.1 0.00 0.00 0.00 38 1014.7
20260504235633 15 321 9.7 11.3 0.00 0.00 0.00 38 1014.6
20260504235129 15 329 11.3 12.9 0.00 0.00 0.00 37 1014.7
20260504234626 15 351 4.8 4.8 0.00 0.00 0.00 39 1014.6
20260504234124 15 323 11.3 14.5 0.00 0.00 0.00 38 1014.5
20260504233619 15 326 11.3 12.9 0.00 0.00 0.00 38 1014.5
20260504233115 15 13 4.8 4.8 0.00 0.00 0.00 38 1014.6
20260504232614 15 313 8.0 9.7 0.00 0.00 0.00 38 1014.5
20260504232110 15 342 11.3 16.1 0.00 0.00 0.00 38 1014.5
20260504231607 15 336 17.7 24.1 0.00 0.00 0.00 37 1014.5
20260504231103 15 318 16.1 17.7 0.00 0.00 0.00 38 1014.0
20260504230558 15 323 17.7 25.7 0.00 0.00 0.00 38 1013.8
20260504230053 15 334 12.9 17.7 0.00 0.00 0.00 38 1013.8
20260504225549 15 357 19.3 25.7 0.00 0.00 0.00 38 1013.6
20260504225046 15 55 8.0 14.5 0.00 0.00 0.00 38 1013.8
20260504224543 15 341 19.3 22.5 0.00 0.00 0.00 37 1013.8
20260504224040 16 332 11.3 12.9 0.00 0.00 0.00 36 1013.6
20260504223537 16 339 19.3 20.9 0.00 0.00 0.00 34 1013.6
20260504223033 17 315 6.4 8.0 0.00 0.00 0.00 29 1013.3
20260504222530 17 307 11.3 12.9 0.00 0.00 0.00 28 1013.4
20260504222027 18 333 6.4 8.0 0.00 0.00 0.00 28 1013.2
20260504221524 17 273 11.3 16.1 0.00 0.00 0.00 28 1013.2
20260504221021 17 345 14.5 16.1 0.00 0.00 0.00 28 1013.2
20260504220518 17 321 14.5 14.5 0.00 0.00 0.00 28 1012.9
20260504220015 17 311 19.3 22.5 0.00 0.00 0.00 27 1013.0
20260504215511 17 282 14.5 16.1 0.00 0.00 0.00 29 1012.9
20260504215009 17 352 8.0 9.7 0.00 0.00 0.00 29 1013.0
20260504214504 17 347 11.3 17.7 0.00 0.00 0.00 28 1013.0
20260504214001 18 331 19.3 24.1 0.00 0.00 0.00 27 1013.2
20260504213456 18 356 8.0 11.3 0.00 0.00 0.00 26 1013.0
20260504212955 18 329 12.9 16.1 0.00 0.00 0.00 26 1013.4
20260504212450 18 352 8.0 11.3 0.00 0.00 0.00 27 1013.3
20260504211948 18 329 12.9 14.5 0.00 0.00 0.00 26 1013.0
20260504211444 18 310 1.6 1.6 0.00 0.00 0.00 27 1013.2
20260504210942 18 8 8.0 8.0 0.00 0.00 0.00 27 1013.6
20260504210438 18 265 0.0 0.0 0.00 0.00 0.00 24 1013.4
20260504205935 19 318 8.0 9.7 0.00 0.00 0.00 25 1013.4
20260504205433 19 309 11.3 11.3 0.00 0.00 0.00 26 1013.5
20260504204931 18 320 4.8 4.8 0.00 0.00 0.00 26 1013.4
20260504204429 19 23 4.8 8.0 0.00 0.00 0.00 27 1013.5
20260504203928 20 341 8.0 9.7 0.00 0.00 0.00 27 1013.5
20260504203425 20 323 11.3 12.9 0.00 0.00 0.00 25 1013.5
20260504202921 20 309 4.8 4.8 0.00 0.00 0.00 26 1013.5
20260504202418 19 220 1.6 3.2 0.00 0.00 0.00 26 1013.8
20260504201914 18 326 6.4 8.0 0.00 0.00 0.00 27 1013.8
20260504201412 20 144 3.2 8.0 0.00 0.00 0.00 28 1013.9
20260504200909 19 11 8.0 12.9 0.00 0.00 0.00 29 1013.8
20260504200406 19 359 16.1 24.1 0.00 0.00 0.00 27 1014.0
20260504195903 19 324 14.5 17.7 0.00 0.00 0.00 27 1013.9
20260504195358 19 351 12.9 16.1 0.00 0.00 0.00 29 1013.9
20260504194855 18 338 17.7 22.5 0.00 0.00 0.00 30 1013.9
20260504194351 18 340 16.1 17.7 0.00 0.00 0.00 30 1013.8
20260504193847 18 37 24.1 32.2 0.00 0.00 0.00 31 1014.1
20260504193344 18 338 11.3 12.9 0.00 0.00 0.00 30 1013.9
20260504192843 17 283 8.0 9.7 0.00 0.00 0.00 31 1013.8
20260504192340 17 317 9.7 12.9 0.00 0.00 0.00 28 1013.5
20260504191839 17 355 14.5 17.7 0.00 0.00 0.00 27 1013.9
20260504191337 17 319 16.1 17.7 0.00 0.00 0.00 26 1013.6
20260504190832 18 319 8.0 9.7 0.00 0.00 0.00 26 1013.6
20260504190328 18 343 6.4 8.0 0.00 0.00 0.00 26 1013.5
20260504185825 18 324 14.5 16.1 0.00 0.00 0.00 25 1013.6
20260504185322 18 344 12.9 12.9 0.00 0.00 0.00 25 1013.6
20260504184818 18 343 4.8 9.7 0.00 0.00 0.00 25 1013.6
20260504184314 18 333 8.0 9.7 0.00 0.00 0.00 25 1013.6
20260504183809 18 335 9.7 14.5 0.00 0.00 0.00 24 1013.8
20260504183307 20 336 8.0 9.7 0.00 0.00 0.00 24 1013.6
20260504182804 20 328 4.8 4.8 0.00 0.00 0.00 25 1013.9
20260504182304 20 322 4.8 4.8 0.00 0.00 0.00 24 1013.8
20260504181759 20 297 4.8 4.8 0.00 0.00 0.00 24 1013.9
20260504181256 21 202 1.6 3.2 0.00 0.00 0.00 24 1014.1
20260504180755 21 146 9.7 11.3 0.00 0.00 0.00 23 1013.9
20260504180254 21 186 4.8 8.0 0.00 0.00 0.00 21 1014.2
20260504175751 20 322 6.4 8.0 0.00 0.00 0.00 25 1014.0
20260504175247 21 339 3.2 3.2 0.00 0.00 0.00 24 1014.2
20260504174745 20 192 3.2 3.2 0.00 0.00 0.00 26 1014.1
20260504174243 20 239 3.2 4.8 0.00 0.00 0.00 23 1014.5
20260504173739 20 215 4.8 4.8 0.00 0.00 0.00 25 1014.4
20260504173236 20 197 4.8 4.8 0.00 0.00 0.00 25 1014.7
20260504172733 20 191 4.8 8.0 0.00 0.00 0.00 26 1015.0
20260504172230 19 315 12.9 17.7 0.00 0.00 0.00 25 1014.6
20260504171726 20 323 12.9 14.5 0.00 0.00 0.00 24 1014.6
20260504171223 20 313 4.8 8.0 0.00 0.00 0.00 26 1014.7
20260504170720 20 245 3.2 3.2 0.00 0.00 0.00 26 1015.0
20260504170217 20 249 6.4 8.0 0.00 0.00 0.00 26 1014.9
20260504160136 18 183 4.8 8.0 0.00 0.00 0.00 27 1015.2
20260504151103 16 252 6.4 8.0 0.00 0.00 0.00 29 1015.6
20260504150600 16 185 8.0 11.3 0.00 0.00 0.00 29 1015.5
20260504141026 16 237 8.0 12.9 0.00 0.00 0.00 30 1015.2
20260504140523 15 208 6.4 9.7 0.00 0.00 0.00 34 1015.1
20260504130447 7 195 3.2 3.2 0.00 0.00 0.00 54 1015.1
20260504110334 6 234 0.0 0.0 0.00 0.00 0.00 58 1015.3
20260504100252 9 234 0.0 0.0 0.00 0.00 0.00 44 1015.6
20260504081645 7 269 0.0 1.6 0.00 0.00 0.00 54 1016.4
20260504081141 7 257 0.0 0.0 0.00 0.00 0.00 55 1016.5
20260504080638 7 222 1.6 1.6 0.00 0.00 0.00 55 1016.5
20260504080134 7 322 8.0 9.7 0.00 0.00 0.00 58 1016.8